Probability
81 61 29 13 13 0 0 3 0 0 0 3 16 19 26 29 26 19 52 77 94 100 100 100 100 100 100 100 100 100 100 100 100 100 100 100 100 100 100 100 100 97 97 97 94 94 97 97 97
55 32 16 3 0 0 0 0 3 10 6 13 16 29 32 42 71 90 90 97 100 100 100 100 100 100 100 100 100 100 100 100 100 100 100 100 100 100 100 100 100 97 97 94 94 94 90 97 97
32 23 0 3 0 0 0 0 0 3 3 10 10 23 45 58 87 94 100 100 100 100 100 100 100 100 100 100 100 100 100 100 100 100 100 100 100 100 100 100 100 100 90 94 87 90 87 87 100
3 0 0 0 0 0 6 0 0 6 6 16 10 16 45 65 87 97 100 100 100 100 100 100 100 100 100 100 100 100 100 100 100 100 100 100 100 100 100 100 100 94 97 94 90 90 90 90 94
0 0 0 0 0 0 3 3 0 13 19 19 13 19 48 74 97 97 100 100 100 100 100 100 100 100 100 100 100 100 100 100 100 100 100 100 100 100 100 100 100 97 97 97 90 87 90 94 90
0 0 0 0 0 0 0 3 16 19 26 16 19 42 55 84 97 97 100 100 100 100 100 100 100 100 100 100 100 100 100 100 100 100 100 100 100 100 100 100 100 100 97 100 100 100 97 97 100
0 0 0 0 0 3 3 10 16 16 16 19 29 42 61 71 94 94 100 100 100 100 100 100 100 100 100 100 100 100 100 100 100 100 100 97 97 100 100 100 100 100 100 100 100 100 97 94 94
0 0 0 0 0 0 0 10 16 23 23 23 32 42 55 74 87 97 100 97 100 100 100 100 100 100 100 97 100 100 100 97 100 97 94 87 87 87 97 100 100 100 100 100 100 100 100 97 97
0 0 0 0 0 0 0 10 23 23 19 26 32 39 61 71 90 87 94 94 97 97 90 90 97 94 94 94 94 87 90 87 84 81 81 77 58 65 77 87 90 90 100 100 100 100 100 97 97
0 0 0 0 0 0 6 13 23 19 16 23 23 42 68 84 81 77 81 84 94 94 87 84 90 90 90 90 77 65 61 58 61 55 42 32 29 32 58 68 87 84 87 90 94 97 97 90 84
0 0 0 0 0 0 6 13 16 19 23 23 29 48 74 74 77 65 58 55 61 81 84 74 77 71 65 65 55 48 39 32 26 23 16 16 13 13 16 23 39 42 55 55 65 74 77 81 71
0 0 0 0 3 6 16 16 16 16 19 26 35 48 68 65 52 45 45 52 48 61 74 65 58 55 42 48 42 23 10 6 3 6 6 3 3 3 3 3 10 16 19 26 39 39 42 52 55
0 0 0 3 6 10 19 23 23 23 19 32 32 42 55 55 42 48 42 29 32 45 48 52 45 32 26 19 23 6 3 3 0 0 0 0 0 3 0 0 0 0 3 10 13 13 19 26 35
0 0 0 3 10 16 16 16 19 19 16 23 32 42 42 35 29 42 45 32 19 26 35 35 29 19 13 10 6 3 0 0 0 0 0 0 0 0 0 0 0 0 0 0 0 0 0 3 13
0 0 0 0 3 10 10 13 16 23 29 29 35 32 32 23 26 26 39 26 23 26 32 26 19 6 3 3 3 0 0 0 0 0 0 0 0 0 0 0 0 0 0 0 0 0 0 0 0
0 0 0 0 0 3 6 0 10 13 29 29 26 23 23 23 29 32 29 29 26 23 16 10 16 3 0 0 0 0 0 0 0 0 0 0 0 0 0 0 0 0 0 0 0 0 0 0 0
0 0 0 0 3 0 3 0 6 10 26 19 19 19 29 26 26 26 29 29 19 16 3 3 3 0 0 0 0 0 0 0 0 0 0 0 0 0 0 0 0 0 0 0 0 0 0 0 0
0 0 0 0 0 0 3 0 3 10 23 19 16 16 19 19 23 29 26 19 10 6 3 3 0 0 0 0 0 0 0 0 0 0 0 0 0 0 0 0 0 0 0 0 0 0 0 0 0
0 0 0 0 0 0 0 0 0 6 13 10 10 13 19 16 19 16 13 13 6 6 3 0 0 0 0 0 0 0 0 0 0 0 0 0 0 0 0 0 0 0 0 0 0 0 0 0 0
0 0 0 0 0 0 0 0 0 6 13 10 10 13 16 16 16 13 10 10 6 0 0 0 0 0 0 0 0 0 0 0 0 0 0 0 0 0 0 0 0 0 0 0 0 0 0 0 0
0 0 0 0 0 0 0 0 0 3 6 6 10 13 10 16 16 10 6 10 3 3 3 0 0 0 0 0 0 0 0 0 0 0 0 0 0 0 0 0 0 0 0 0 0 0 0 0 0
0 0 0 0 0 0 0 0 0 0 3 10 10 13 10 13 13 13 13 10 3 3 3 3 0 0 0 0 0 0 0 0 0 0 0 0 0 0 0 0 0 0 0 0 0 0 0 0 0
0 0 0 0 0 0 0 0 0 0 0 3 6 6 10 10 13 13 16 13 13 6 3 0 0 0 0 0 0 0 0 0 0 0 0 0 0 0 0 0 0 0 0 0 0 0 0 0 0
0 0 0 0 0 0 0 0 0 0 0 0 0 6 10 10 13 13 13 13 13 3 3 0 0 0 0 0 0 0 0 0 0 0 0 0 0 0 0 0 0 0 0 0 0 0 0 0 0
0 0 0 0 0 0 0 0 0 0 0 0 0 0 6 10 16 16 13 13 13 3 3 0 0 0 0 0 0 0 0 0 0 0 0 0 0 0 0 0 0 0 0 0 0 0 0 0 0
0 0 0 0 0 0 0 0 0 0 0 0 0 0 0 10 16 16 13 16 13 10 3 0 0 0 0 0 0 0 0 0 0 0 0 0 0 0 0 0 0 0 0 0 0 0 0 0 0
0 0 0 0 0 0 0 0 0 0 0 3 3 0 0 0 10 13 13 13 13 13 6 3 0 0 0 0 0 0 0 0 0 0 0 0 0 0 0 0 0 0 0 0 0 0 0 0 0
0 0 0 0 0 0 0 0 0 0 0 0 3 0 0 0 6 10 13 13 10 10 6 6 3 0 0 0 0 0 0 0 0 0 0 0 0 0 0 0 0 0 0 0 0 0 0 0 0
0 0 0 0 0 0 0 0 0 0 0 0 0 0 0 0 0 3 6 10 10 6 6 6 3 0 0 0 0 0 0 0 0 0 0 0 0 0 0 0 0 0 0 0 0 0 0 0 0
0 0 0 0 0 0 0 0 0 0 0 0 0 0 0 0 0 3 3 6 10 6 6 6 6 0 0 0 0 0 0 0 0 0 0 0 0 0 0 0 0 0 0 0 0 0 0 0 0
Height
5898 5897 5897 5896 5895 5893 5891 5890 5888 5888 5888 5888 5887 5887 5887 5887 5888 5891 5890 5890 5891 5892 5893 5893 5893 5894 5894 5894 5894 5894 5895 5895 5896 5897 5897 5898 5898 5898 5899 5899 5899 5899 5899 5899 5898 5898 5898 5898 5897
5897 5896 5896 5894 5893 5891 5890 5889 5888 5888 5888 5886 5886 5885 5885 5886 5886 5887 5887 5889 5890 5892 5892 5893 5893 5893 5893 5893 5893 5894 5894 5895 5895 5896 5896 5897 5897 5897 5897 5898 5898 5898 5898 5898 5898 5897 5897 5897 5897
5894 5894 5893 5892 5890 5889 5888 5887 5887 5886 5886 5885 5884 5883 5884 5884 5885 5886 5886 5888 5890 5891 5892 5892 5892 5892 5892 5893 5893 5894 5894 5894 5895 5895 5895 5896 5896 5896 5896 5896 5896 5896 5896 5896 5896 5896 5896 5896 5896
5892 5892 5891 5889 5887 5886 5885 5885 5884 5884 5883 5883 5882 5881 5881 5883 5884 5885 5886 5887 5888 5890 5891 5891 5891 5891 5892 5892 5892 5893 5893 5894 5894 5894 5894 5895 5895 5895 5895 5895 5895 5895 5895 5895 5895 5895 5895 5895 5895
5889 5889 5888 5886 5885 5883 5882 5881 5882 5881 5881 5880 5880 5880 5880 5881 5881 5883 5884 5886 5887 5889 5889 5890 5890 5890 5891 5891 5892 5892 5892 5893 5893 5893 5893 5893 5893 5894 5893 5893 5893 5893 5893 5893 5893 5893 5893 5894 5894
5887 5886 5885 5883 5881 5880 5878 5878 5878 5878 5878 5878 5877 5877 5877 5879 5880 5882 5883 5885 5886 5887 5888 5889 5889 5890 5890 5890 5891 5891 5891 5892 5892 5892 5892 5892 5892 5892 5891 5891 5891 5891 5891 5891 5891 5891 5891 5892 5892
5885 5883 5881 5880 5878 5877 5876 5874 5875 5875 5875 5875 5875 5876 5876 5877 5879 5880 5882 5884 5885 5886 5886 5887 5888 5888 5888 5889 5889 5890 5890 5890 5890 5890 5890 5889 5889 5889 5889 5889 5888 5888 5888 5888 5888 5889 5889 5889 5890
5882 5881 5878 5877 5875 5874 5873 5871 5871 5871 5871 5871 5871 5872 5873 5875 5876 5878 5880 5882 5883 5883 5884 5885 5886 5886 5886 5887 5887 5887 5887 5887 5888 5887 5887 5887 5887 5887 5887 5886 5886 5886 5886 5885 5885 5885 5886 5886 5887
5880 5879 5876 5874 5873 5871 5870 5868 5868 5867 5867 5867 5868 5868 5869 5870 5871 5874 5876 5878 5880 5880 5881 5882 5883 5884 5884 5884 5885 5885 5885 5885 5885 5885 5885 5884 5884 5884 5884 5884 5883 5883 5883 5883 5882 5883 5883 5883 5884
5878 5876 5874 5872 5871 5869 5867 5866 5865 5864 5863 5863 5863 5864 5864 5865 5867 5870 5871 5874 5876 5877 5878 5880 5881 5881 5882 5882 5882 5882 5882 5882 5882 5882 5882 5882 5881 5881 5881 5881 5881 5881 5880 5880 5880 5880 5880 5881 5881
5876 5875 5873 5871 5869 5867 5865 5863 5861 5860 5859 5858 5858 5859 5859 5861 5863 5865 5867 5870 5872 5874 5875 5876 5877 5878 5879 5879 5879 5879 5880 5880 5880 5879 5879 5879 5879 5879 5879 5879 5878 5878 5878 5877 5877 5877 5878 5878 5878
5876 5874 5872 5870 5867 5865 5863 5860 5858 5856 5856 5855 5854 5854 5855 5856 5858 5860 5863 5865 5867 5869 5871 5873 5874 5875 5876 5877 5877 5877 5877 5877 5877 5877 5877 5877 5877 5876 5876 5876 5876 5876 5876 5875 5875 5875 5875 5875 5876
5876 5874 5871 5869 5866 5864 5861 5858 5855 5853 5852 5850 5850 5850 5850 5851 5853 5855 5858 5860 5862 5865 5868 5870 5871 5873 5874 5874 5875 5875 5875 5874 5874 5874 5874 5874 5874 5874 5874 5874 5874 5874 5873 5873 5873 5872 5872 5873 5873
5875 5873 5870 5868 5865 5862 5859 5856 5853 5850 5848 5846 5845 5846 5846 5846 5848 5850 5853 5856 5858 5861 5864 5866 5868 5870 5871 5872 5872 5872 5872 5872 5872 5872 5872 5872 5872 5872 5872 5872 5871 5871 5871 5870 5870 5870 5870 5870 5870
5875 5873 5870 5867 5864 5861 5858 5855 5851 5848 5845 5843 5841 5840 5840 5841 5843 5845 5848 5851 5854 5857 5860 5863 5865 5867 5868 5869 5870 5870 5870 5870 5870 5870 5870 5870 5870 5870 5870 5869 5869 5869 5868 5868 5868 5868 5868 5868 5868
5875 5873 5870 5866 5863 5859 5858 5854 5850 5846 5843 5841 5838 5837 5836 5836 5839 5841 5844 5847 5851 5854 5857 5860 5863 5865 5866 5867 5867 5868 5868 5868 5869 5869 5869 5868 5868 5868 5868 5868 5867 5867 5866 5866 5866 5866 5865 5865 5865
5874 5872 5869 5866 5862 5858 5856 5853 5849 5845 5842 5839 5837 5835 5835 5836 5838 5839 5842 5845 5848 5851 5854 5857 5860 5862 5864 5865 5866 5866 5867 5867 5867 5867 5867 5867 5867 5867 5866 5866 5866 5865 5865 5864 5864 5864 5863 5863 5863
5874 5871 5868 5865 5862 5858 5855 5852 5848 5844 5841 5838 5836 5835 5835 5835 5837 5838 5840 5843 5846 5848 5852 5855 5858 5860 5862 5863 5864 5865 5866 5866 5866 5866 5866 5866 5866 5865 5865 5865 5864 5864 5863 5863 5862 5862 5861 5861 5861
5873 5870 5867 5864 5861 5858 5854 5851 5848 5845 5841 5839 5837 5835 5835 5835 5836 5838 5840 5842 5844 5847 5849 5853 5856 5858 5860 5862 5863 5864 5864 5865 5865 5865 5865 5865 5865 5864 5864 5864 5863 5863 5862 5862 5861 5861 5860 5859 5859
5871 5868 5866 5863 5860 5857 5854 5851 5848 5845 5842 5840 5838 5836 5835 5835 5836 5837 5839 5841 5843 5846 5848 5852 5854 5857 5859 5861 5862 5863 5863 5864 5864 5864 5864 5864 5864 5864 5863 5863 5862 5862 5861 5860 5860 5859 5859 5858 5858
5870 5867 5864 5862 5860 5857 5855 5852 5849 5846 5843 5842 5840 5838 5836 5835 5837 5838 5839 5841 5843 5845 5848 5851 5853 5856 5858 5860 5861 5862 5862 5863 5863 5864 5864 5863 5863 5863 5862 5862 5861 5861 5860 5859 5859 5858 5857 5857 5856
5868 5866 5863 5861 5859 5857 5855 5853 5850 5847 5845 5843 5841 5840 5838 5837 5837 5837 5838 5840 5842 5845 5848 5851 5853 5855 5857 5859 5860 5861 5861 5862 5862 5863 5863 5863 5862 5862 5861 5861 5860 5860 5859 5858 5858 5857 5856 5855 5854
5866 5864 5862 5860 5858 5857 5855 5853 5852 5849 5847 5845 5843 5842 5840 5839 5839 5839 5839 5841 5843 5846 5849 5851 5853 5855 5857 5858 5859 5860 5860 5861 5861 5862 5862 5862 5861 5861 5860 5860 5859 5859 5858 5857 5856 5855 5854 5853 5852
5864 5863 5861 5859 5858 5857 5855 5854 5852 5850 5849 5848 5846 5844 5843 5842 5841 5841 5841 5843 5844 5847 5849 5851 5853 5854 5856 5858 5858 5859 5859 5860 5860 5860 5860 5861 5860 5860 5859 5859 5858 5857 5856 5855 5854 5853 5852 5851 5850
5863 5861 5860 5859 5857 5857 5855 5854 5853 5851 5850 5849 5848 5847 5845 5844 5843 5843 5844 5845 5846 5848 5849 5851 5853 5854 5856 5857 5857 5858 5858 5859 5859 5859 5859 5859 5859 5858 5858 5857 5856 5855 5854 5853 5852 5850 5849 5848 5846
5861 5860 5859 5858 5857 5856 5855 5853 5853 5852 5850 5849 5849 5848 5847 5846 5845 5845 5846 5846 5847 5848 5850 5851 5852 5854 5855 5856 5856 5857 5857 5858 5858 5858 5857 5857 5856 5856 5855 5855 5854 5853 5852 5850 5849 5848 5846 5845 5843
5858 5857 5857 5856 5855 5854 5853 5853 5852 5851 5850 5849 5849 5848 5847 5847 5846 5846 5846 5846 5847 5848 5849 5850 5851 5852 5853 5854 5855 5855 5856 5856 5856 5855 5855 5854 5854 5853 5853 5852 5851 5849 5848 5847 5846 5844 5842 5841 5839
5856 5855 5854 5853 5852 5851 5852 5851 5851 5850 5850 5849 5848 5847 5847 5846 5846 5846 5846 5846 5846 5847 5848 5849 5850 5851 5852 5852 5853 5853 5853 5853 5853 5853 5852 5852 5851 5850 5849 5848 5847 5846 5844 5843 5841 5840 5838 5836 5834
5853 5852 5850 5849 5849 5849 5849 5852 5850 5849 5848 5848 5847 5846 5846 5846 5845 5845 5845 5845 5845 5846 5847 5848 5848 5849 5850 5850 5850 5850 5850 5850 5850 5849 5849 5848 5847 5846 5845 5844 5842 5841 5840 5838 5836 5834 5832 5830 5828
5849 5848 5847 5847 5846 5846 5846 5850 5847 5847 5846 5846 5845 5845 5844 5844 5844 5843 5843 5844 5844 5844 5845 5845 5846 5846 5846 5847 5847 5847 5847 5846 5846 5845 5844 5843 5842 5841 5840 5839 5837 5836 5834 5832 5830 5828 5826 5824 5822
Wind_Speed
12 11 11 12 13 14 14 14 15 14 12 9 6 5 4 4 8 8 7 6 5 5 6 7 6 4 4 3 3 3 2 1 1 1 2 2 3 4 5 5 6 7 7 8 8 8 7 7 6
14 13 14 14 15 16 17 17 17 17 15 12 8 6 5 5 7 8 8 6 6 7 7 7 6 5 4 3 3 2 1 1 1 2 3 4 4 5 6 6 7 7 7 8 8 8 7 7 6
15 15 16 17 18 19 19 19 19 18 17 16 12 7 6 5 6 7 8 7 6 7 8 7 6 5 5 4 3 2 1 2 3 3 4 5 6 7 7 8 8 8 9 9 9 8 8 7 6
17 17 17 19 20 21 21 21 21 21 20 17 14 9 6 6 7 8 8 8 8 8 9 7 6 5 5 4 4 3 3 3 4 5 5 6 8 9 9 10 10 10 10 10 10 9 9 7 6
18 18 18 20 21 22 24 23 23 22 20 18 15 12 8 6 6 9 10 10 10 10 9 8 6 5 4 4 4 4 4 5 6 7 8 9 10 11 12 13 13 13 12 12 11 10 10 9 8
18 18 19 21 22 23 25 25 24 23 20 19 17 14 10 7 6 9 11 11 11 11 10 8 6 5 4 5 5 5 6 7 8 9 10 11 12 13 14 14 15 15 15 14 13 12 11 10 9
18 19 19 20 22 24 25 25 25 24 22 20 17 15 11 9 8 10 12 12 12 11 10 9 7 6 5 6 6 7 8 9 10 11 12 13 14 15 15 15 15 16 17 16 15 14 13 12 11
18 19 19 20 21 23 24 25 24 23 22 20 18 15 13 11 10 11 14 14 13 12 11 9 8 7 7 7 8 9 10 11 12 13 13 14 15 16 16 16 16 17 17 17 16 15 14 14 13
17 17 18 19 19 20 22 22 23 23 22 21 19 16 14 12 12 14 15 15 14 14 12 9 8 8 8 9 9 10 11 12 13 14 14 15 15 16 16 16 16 16 16 16 16 15 15 15 13
15 15 15 16 17 17 18 20 20 21 21 20 19 18 16 15 15 16 16 16 16 16 14 11 9 9 9 10 10 11 12 13 13 14 14 15 15 15 15 15 15 15 15 15 15 15 15 14 13
13 13 13 14 15 16 16 18 17 18 20 19 18 17 15 15 16 18 19 19 17 16 15 12 10 10 11 11 11 12 13 13 13 13 13 14 14 14 13 13 13 14 14 14 14 15 15 14 13
12 12 12 13 14 15 15 16 16 17 18 18 17 16 16 16 17 19 20 20 19 16 15 13 12 11 11 11 11 12 12 12 12 12 12 12 12 12 12 12 13 13 12 12 13 13 14 14 14
12 12 12 13 14 15 15 15 15 16 16 16 16 15 16 17 18 19 21 20 19 17 16 15 13 12 11 11 11 11 12 12 12 12 12 11 11 11 11 12 12 12 12 12 12 13 13 14 14
13 13 13 14 14 15 15 15 15 16 15 15 14 14 14 16 17 19 21 22 20 17 15 14 13 11 10 10 10 11 10 11 11 11 11 10 10 10 10 11 11 11 12 12 12 13 13 13 13
12 13 13 14 14 15 15 16 16 16 15 14 13 12 12 14 16 19 21 20 18 16 14 13 11 10 9 9 9 9 9 9 10 10 10 9 9 9 9 9 10 10 10 11 11 12 12 12 13
12 12 13 15 15 15 16 17 16 16 16 14 13 11 9 12 15 18 20 19 16 15 14 13 11 10 8 8 8 8 8 8 8 7 7 7 6 7 7 8 8 8 9 9 10 11 11 12 12
13 13 14 15 14 15 16 17 18 17 16 13 11 7 5 9 12 13 16 17 16 15 14 13 11 9 7 6 6 6 6 5 4 4 5 5 5 5 6 7 7 7 8 9 9 10 10 11 11
13 14 14 15 15 15 17 17 16 16 14 11 8 4 3 6 8 10 13 14 14 13 13 12 10 8 7 6 5 4 3 2 2 3 3 4 5 5 6 6 6 7 7 8 8 9 10 10 10
13 14 14 15 15 15 16 15 15 14 13 10 7 3 1 4 7 9 11 12 13 13 12 12 10 9 7 5 4 2 1 1 2 2 3 4 5 5 6 6 6 6 7 7 7 8 9 9 9
14 13 13 14 14 16 14 14 13 13 11 9 7 4 2 2 5 8 9 10 10 12 13 11 9 7 6 5 4 2 1 1 2 2 3 4 4 5 6 6 6 7 7 7 7 8 8 9 9
14 14 13 14 14 14 13 12 12 11 9 8 6 5 3 3 4 6 7 9 10 11 12 11 8 8 6 4 3 2 1 1 2 3 3 4 4 5 5 6 6 6 6 7 8 8 9 9 10
14 14 13 13 13 12 12 11 10 10 9 8 6 5 4 5 4 4 6 9 11 12 12 10 9 8 6 5 4 3 2 2 2 3 3 4 4 4 5 5 6 6 7 8 8 9 9 10 11
14 14 13 12 11 11 11 11 10 9 8 7 6 5 5 5 4 5 7 9 10 11 11 10 9 7 6 5 4 3 3 2 3 3 3 3 3 4 5 5 6 6 7 8 10 10 11 11 12
14 13 12 12 11 10 10 10 9 7 7 6 4 4 4 4 5 5 7 9 9 10 9 8 7 7 6 5 4 3 3 3 3 3 3 3 3 4 4 5 6 7 8 9 11 11 12 13 13
14 13 13 12 10 9 9 8 8 7 6 5 3 3 3 3 4 5 5 7 7 7 7 7 7 6 6 5 4 4 4 4 4 4 4 4 4 5 5 6 7 8 9 10 12 13 14 14 15
14 13 14 13 11 9 8 8 7 7 6 5 4 3 1 1 1 2 3 4 5 5 6 6 6 6 5 5 5 4 4 5 5 5 5 6 6 7 8 9 10 10 11 13 14 14 15 16 17
14 13 14 15 13 11 9 8 8 8 7 7 6 5 4 3 2 2 2 3 4 5 5 6 6 6 6 6 6 6 6 6 6 6 7 8 9 10 10 12 13 14 15 16 17 17 18 18 19
15 15 15 16 16 13 9 7 8 8 8 8 7 7 6 5 5 5 5 5 5 6 7 7 8 8 8 8 8 7 7 7 8 8 9 10 11 12 13 14 15 17 18 19 20 20 20 22 22
16 16 16 16 16 14 10 8 9 9 9 9 8 8 8 7 7 8 8 8 8 8 9 9 10 10 10 10 10 10 9 9 10 11 12 13 14 15 17 18 18 19 21 22 22 23 23 24 24
16 17 17 17 16 15 13 9 10 10 10 10 10 10 10 10 10 10 10 10 10 10 11 11 11 11 12 12 12 12 12 13 13 14 16 17 17 18 19 20 21 22 23 24 24 24 25 26 26
Wind_Direction
309 307 306 302 296 291 290 289 289 290 294 290 277 246 196 189 176 174 177 189 208 221 220 217 209 200 188 169 159 154 145 139 111 6 344 337 332 328 325 331 336 341 346 349 351 355 356 358 4
306 303 301 298 295 292 288 288 289 291 297 296 290 254 211 198 181 177 177 192 213 227 224 218 211 205 198 188 181 185 195 256 303 316 316 318 318 318 318 321 325 331 334 336 339 342 345 347 350
301 299 295 293 291 291 291 291 292 293 296 297 287 257 232 207 195 186 184 194 216 231 228 218 209 205 207 208 211 228 261 291 306 311 310 310 309 309 311 313 316 320 323 326 329 331 332 337 342
301 296 292 289 290 290 288 288 289 292 293 297 286 258 236 228 210 200 196 203 216 227 228 221 213 211 217 224 231 242 264 281 294 301 305 305 305 306 307 307 308 311 314 317 320 322 321 323 326
301 296 291 288 287 287 286 287 288 290 292 295 294 286 278 263 220 200 201 205 216 224 226 224 219 219 224 232 240 251 266 278 287 292 294 295 297 298 300 301 302 304 306 308 311 312 311 309 309
303 299 293 289 286 285 284 286 288 289 290 292 294 295 292 277 230 212 207 205 216 225 226 225 223 229 240 253 261 268 276 282 287 290 292 291 291 292 293 297 297 299 300 301 302 304 303 301 301
306 303 296 292 287 285 285 287 286 288 287 289 289 291 290 274 253 230 213 210 219 225 227 229 234 241 252 260 268 275 280 282 285 290 292 291 290 291 292 293 294 295 295 295 295 295 296 294 292
313 306 300 296 291 287 288 287 287 286 286 286 283 284 282 273 258 237 217 217 222 225 226 230 238 246 257 265 270 275 280 284 288 291 293 291 290 290 289 291 292 292 292 290 290 290 291 290 287
318 312 308 303 297 293 290 288 287 286 285 285 285 279 278 271 253 233 222 221 227 227 226 234 245 251 258 264 270 277 282 285 288 290 292 292 290 289 288 289 289 290 291 289 288 289 290 290 287
325 319 316 312 308 303 297 292 290 287 284 283 281 280 275 265 248 231 221 219 223 225 228 236 247 250 258 266 273 278 281 285 288 289 290 292 291 289 289 288 287 288 289 288 286 289 289 287 284
331 329 329 327 321 315 308 300 296 291 287 287 286 281 268 259 249 232 222 224 227 229 235 234 244 251 257 266 272 277 282 286 288 290 290 291 291 290 291 290 289 288 289 289 287 287 287 285 281
337 340 340 338 332 328 322 312 303 296 292 290 287 277 265 256 247 228 223 225 226 230 229 231 243 252 257 264 271 280 286 288 289 291 292 292 293 291 291 291 290 289 287 287 285 284 284 281 279
344 348 346 344 340 338 334 328 319 310 302 294 287 274 260 254 247 235 228 225 223 225 227 232 240 245 252 262 273 281 288 290 292 292 291 292 293 293 292 291 291 290 288 287 287 285 283 281 278
343 345 344 344 343 343 343 338 332 329 319 309 295 272 251 245 240 237 230 226 226 223 222 227 233 235 247 265 274 283 288 290 293 294 293 295 297 296 294 291 290 290 290 289 287 285 284 282 280
342 342 341 340 340 341 343 343 338 333 327 316 302 283 257 237 229 232 229 227 221 215 212 216 222 231 245 262 273 281 286 290 292 295 296 297 299 300 297 294 291 290 289 289 288 287 286 284 282
340 340 341 340 339 339 342 343 341 337 329 320 309 291 256 223 218 223 222 217 211 210 206 208 219 228 241 259 274 283 286 290 293 296 297 301 306 305 303 301 300 298 295 293 291 291 290 287 285
336 336 336 336 335 338 340 339 339 339 332 324 319 301 240 215 210 213 212 204 203 205 201 203 208 219 233 254 270 277 281 287 297 304 308 312 316 318 317 314 311 308 305 301 298 296 294 292 289
333 334 336 337 335 335 336 336 335 340 340 336 335 323 213 211 207 206 202 200 198 195 195 198 201 210 224 242 254 265 277 303 321 327 328 334 338 335 331 328 325 321 318 314 309 304 299 295 292
330 332 334 336 334 334 335 336 337 342 346 348 347 343 230 200 198 195 194 199 201 195 189 187 196 201 212 223 231 248 279 320 344 343 345 347 345 341 337 335 333 329 327 324 321 316 310 304 300
328 329 329 331 333 335 335 337 337 343 350 357 6 19 27 178 188 192 199 203 203 195 187 183 185 190 195 209 221 222 229 295 328 335 337 335 334 333 333 335 336 335 334 333 331 328 322 316 312
328 327 326 328 332 333 333 336 337 344 351 360 10 20 39 128 162 180 194 195 192 188 180 179 181 182 186 194 199 210 245 286 315 322 323 327 329 330 337 342 342 344 343 341 338 334 329 324 319
327 328 324 325 329 336 338 341 340 349 355 3 10 22 66 105 127 154 175 174 176 171 170 173 176 176 181 187 201 222 247 271 299 313 325 335 339 341 346 348 345 345 345 343 342 339 333 328 323
326 328 329 329 330 331 335 339 342 349 358 5 17 38 74 94 107 127 149 160 166 166 167 170 172 174 182 193 209 224 241 265 288 303 317 328 335 342 346 345 345 347 347 344 341 340 336 331 327
322 321 326 329 324 322 326 330 333 341 352 3 10 29 61 83 92 108 135 145 149 157 165 171 174 179 189 202 213 226 242 264 279 291 303 313 321 329 335 336 339 340 340 339 338 335 333 330 325
314 314 319 326 325 324 321 321 320 329 339 349 355 11 45 65 87 105 128 145 150 161 171 178 180 189 199 211 220 233 246 260 272 283 293 300 304 308 313 317 322 326 330 331 331 329 328 326 322
309 310 312 317 316 317 313 314 309 312 323 330 329 326 324 45 122 131 139 153 161 170 179 186 193 205 215 224 231 241 252 263 270 279 288 296 299 301 303 307 311 314 317 320 320 320 321 321 320
305 306 306 306 308 306 304 300 298 298 302 306 305 299 289 271 244 211 197 192 194 200 207 214 220 226 232 236 239 247 257 267 275 283 290 295 297 298 300 302 303 305 307 310 311 311 311 313 313
304 303 301 301 303 303 300 289 288 287 290 293 290 282 276 270 259 248 242 239 235 232 232 234 235 238 241 243 246 252 262 272 281 288 291 295 297 298 300 301 302 302 301 302 304 305 305 307 308
304 304 299 297 297 296 291 283 283 284 280 286 287 280 274 268 259 254 249 246 242 240 239 239 240 242 244 246 251 257 265 274 282 287 291 293 296 297 297 297 298 299 300 301 302 302 303 305 306
302 304 299 294 294 288 283 277 271 275 276 275 275 273 274 271 263 257 253 249 245 243 242 242 245 247 250 252 255 261 268 275 281 285 288 290 292 294 294 295 296 297 299 300 301 302 302 303 304